• în România
  • Lista ţărilor
  • Pe 7 zile
  • Temperatura apei
  • Hartă satelitară
  • Meteo pe hartă
  • Widget-uri
  • user-avatar
    Intrare

    Meteo pe oră la Lebyazhe

    Astăzi, 25 Mai, Vineri

    Timp Temperatura Precipitaţii Vânt Presiune Umiditate
    00:00 +17°C° 0,1 mm 6 m/s 747 mmHg 85%
    01:00 +16°C° 0 mm 6 m/s 747 mmHg 86%
    02:00 +16°C° 0 mm 6 m/s 747 mmHg 86%
    03:00 +17°C° 0 mm 4 m/s 747 mmHg 89%
    04:00 +16°C° 0 mm 5 m/s 747 mmHg 89%
    05:00 +16°C° 0 mm 6 m/s 748 mmHg 89%
    06:00 +16°C° 0 mm 7 m/s 748 mmHg 89%
    07:00 +17°C° 0 mm 8 m/s 748 mmHg 86%
    08:00 +18°C° 0 mm 8 m/s 748 mmHg 83%
    09:00 +21°C° 0 mm 8 m/s 749 mmHg 78%
    10:00 +21°C° 0 mm 8 m/s 749 mmHg 76%
    11:00 +21°C° 0 mm 9 m/s 749 mmHg 75%
    12:00 +21°C° 0 mm 9 m/s 750 mmHg 73%
    13:00 +21°C° 0 mm 9 m/s 750 mmHg 73%
    14:00 +21°C° 0 mm 9 m/s 750 mmHg 72%
    15:00 +21°C° 0 mm 9 m/s 750 mmHg 71%
    16:00 +20°C° 0 mm 8 m/s 751 mmHg 71%
    17:00 +18°C° 0 mm 8 m/s 751 mmHg 71%
    18:00 +17°C° 0 mm 8 m/s 752 mmHg 71%
    19:00 +16°C° 0 mm 8 m/s 752 mmHg 68%
    20:00 +13°C° 0 mm 8 m/s 753 mmHg 66%
    21:00 +12°C° 0 mm 8 m/s 754 mmHg 64%
    22:00 +11°C° 0 mm 8 m/s 754 mmHg 62%
    23:00 +10°C° 0 mm 7 m/s 755 mmHg 60%

    Mâine, 26 Mai, Sâmbătă

    Timp Temperatura Precipitaţii Vânt Presiune Umiditate
    00:00 +9°C° 0 mm 7 m/s 756 mmHg 58%
    01:00 +8°C° 0 mm 6 m/s 756 mmHg 58%
    02:00 +8°C° 0 mm 6 m/s 757 mmHg 59%
    03:00 +7°C° 0 mm 6 m/s 758 mmHg 60%
    04:00 +7°C° 0 mm 6 m/s 758 mmHg 61%
    05:00 +7°C° 0 mm 6 m/s 758 mmHg 62%
    06:00 +7°C° 0 mm 6 m/s 759 mmHg 63%
    07:00 +8°C° 0 mm 7 m/s 759 mmHg 60%
    08:00 +9°C° 0 mm 7 m/s 760 mmHg 56%
    09:00 +10°C° 0 mm 8 m/s 760 mmHg 52%
    10:00 +11°C° 0 mm 7 m/s 761 mmHg 52%
    11:00 +12°C° 0 mm 7 m/s 761 mmHg 51%
    12:00 +14°C° 0 mm 7 m/s 761 mmHg 51%
    13:00 +14°C° 0 mm 7 m/s 761 mmHg 51%
    14:00 +14°C° 0 mm 7 m/s 761 mmHg 52%
    15:00 +15°C° 0 mm 6 m/s 761 mmHg 53%
    16:00 +14°C° 0 mm 6 m/s 761 mmHg 56%
    17:00 +14°C° 0 mm 5 m/s 761 mmHg 59%
    18:00 +14°C° 0 mm 5 m/s 761 mmHg 62%
    19:00 +12°C° 0 mm 4 m/s 762 mmHg 66%
    20:00 +10°C° 0 mm 3 m/s 762 mmHg 70%
    21:00 +9°C° 0 mm 3 m/s 762 mmHg 74%
    22:00 +8°C° 0 mm 3 m/s 762 mmHg 75%
    23:00 +8°C° 0 mm 3 m/s 763 mmHg 75%

    Poimâine, 27 Mai, Duminică

    Timp Temperatura Precipitaţii Vânt Presiune Umiditate
    00:00 +7°C° 0 mm 2 m/s 763 mmHg 76%
    01:00 +7°C° 0 mm 2 m/s 763 mmHg 76%
    02:00 +6°C° 0 mm 2 m/s 763 mmHg 76%
    03:00 +7°C° 0 mm 1 m/s 763 mmHg 77%
    04:00 +8°C° 0 mm 1 m/s 763 mmHg 75%
    05:00 +9°C° 0 mm 1 m/s 763 mmHg 73%
    06:00 +8°C° 0 mm 0 m/s 763 mmHg 71%
    07:00 +10°C° 0 mm 0 m/s 763 mmHg 66%
    08:00 +13°C° 0 mm 1 m/s 763 mmHg 60%
    09:00 +15°C° 0 mm 1 m/s 763 mmHg 54%
    10:00 +16°C° 0 mm 1 m/s 763 mmHg 52%
    11:00 +18°C° 0 mm 1 m/s 762 mmHg 49%
    12:00 +19°C° 0 mm 1 m/s 762 mmHg 46%
    13:00 +19°C° 0 mm 1 m/s 761 mmHg 46%
    14:00 +19°C° 0 mm 2 m/s 761 mmHg 46%
    15:00 +19°C° 0 mm 2 m/s 760 mmHg 47%
    16:00 +19°C° 0 mm 2 m/s 759 mmHg 52%
    17:00 +19°C° 0 mm 2 m/s 759 mmHg 57%
    18:00 +18°C° 0 mm 3 m/s 758 mmHg 61%
    19:00 +16°C° 0 mm 3 m/s 758 mmHg 66%
    20:00 +14°C° 0 mm 3 m/s 758 mmHg 70%
    21:00 +12°C° 0 mm 3 m/s 758 mmHg 74%
    22:00 +11°C° 0 mm 3 m/s 757 mmHg 75%
    23:00 +11°C° 0 mm 3 m/s 757 mmHg 76%

    28 Mai, Luni

    Timp Temperatura Precipitaţii Vânt Presiune Umiditate
    00:00 +10°C° 0 mm 3 m/s 757 mmHg 77%
    01:00 +10°C° 0 mm 4 m/s 757 mmHg 78%
    02:00 +10°C° 0 mm 4 m/s 757 mmHg 79%
    03:00 +10°C° 0 mm 4 m/s 756 mmHg 79%
    04:00 +10°C° 0 mm 4 m/s 757 mmHg 81%
    05:00 +11°C° 0 mm 4 m/s 757 mmHg 83%
    06:00 +12°C° 0 mm 5 m/s 757 mmHg 84%
    07:00 +13°C° 0 mm 5 m/s 757 mmHg 75%
    08:00 +14°C° 0 mm 5 m/s 757 mmHg 66%
    09:00 +16°C° 0 mm 5 m/s 758 mmHg 57%
    10:00 +16°C° 0 mm 5 m/s 758 mmHg 54%
    11:00 +17°C° 0 mm 5 m/s 758 mmHg 52%
    12:00 +17°C° 0 mm 5 m/s 758 mmHg 49%
    13:00 +19°C° 0 mm 5 m/s 758 mmHg 50%
    14:00 +19°C° 0 mm 5 m/s 758 mmHg 50%
    15:00 +19°C° 0 mm 6 m/s 758 mmHg 51%
    16:00 +17°C° 0 mm 5 m/s 758 mmHg 54%
    17:00 +17°C° 0 mm 5 m/s 758 mmHg 58%
    18:00 +17°C° 0 mm 4 m/s 758 mmHg 61%
    19:00 +14°C° 0 mm 4 m/s 759 mmHg 65%
    20:00 +12°C° 0 mm 3 m/s 759 mmHg 68%
    21:00 +10°C° 0 mm 3 m/s 759 mmHg 71%
    22:00 +9°C° 0 mm 2 m/s 760 mmHg 72%
    23:00 +9°C° 0 mm 2 m/s 760 mmHg 72%

    29 Mai, Marţi

    Timp Temperatura Precipitaţii Vânt Presiune Umiditate
    00:00 +8°C° 0 mm 2 m/s 760 mmHg 73%
    01:00 +7°C° 0 mm 2 m/s 760 mmHg 73%
    02:00 +7°C° 0 mm 2 m/s 761 mmHg 74%
    03:00 +7°C° 0 mm 2 m/s 761 mmHg 74%
    04:00 +7°C° 0 mm 2 m/s 761 mmHg 73%
    05:00 +8°C° 0 mm 2 m/s 761 mmHg 73%
    06:00 +9°C° 0 mm 2 m/s 761 mmHg 72%
    07:00 +11°C° 0 mm 3 m/s 761 mmHg 67%
    08:00 +13°C° 0 mm 3 m/s 761 mmHg 61%
    09:00 +15°C° 0 mm 4 m/s 760 mmHg 56%
    10:00 +17°C° 0 mm 4 m/s 760 mmHg 55%
    11:00 +18°C° 0 mm 4 m/s 760 mmHg 54%
    12:00 +19°C° 0 mm 5 m/s 759 mmHg 53%
    13:00 +20°C° 0 mm 5 m/s 759 mmHg 53%
    14:00 +20°C° 0 mm 5 m/s 759 mmHg 53%
    15:00 +21°C° 0 mm 5 m/s 758 mmHg 54%
    16:00 +20°C° 0 mm 4 m/s 758 mmHg 58%
    17:00 +20°C° 0 mm 4 m/s 757 mmHg 62%
    18:00 +20°C° 0 mm 3 m/s 757 mmHg 66%
    19:00 +18°C° 0 mm 3 m/s 757 mmHg 71%
    20:00 +16°C° 0 mm 3 m/s 757 mmHg 75%
    21:00 +14°C° 0 mm 3 m/s 757 mmHg 80%
    22:00 +13°C° 0 mm 3 m/s 756 mmHg 81%
    23:00 +12°C° 0 mm 3 m/s 756 mmHg 83%

    30 Mai, Miercuri

    Timp Temperatura Precipitaţii Vânt Presiune Umiditate
    00:00 +12°C° 0 mm 3 m/s 756 mmHg 84%
    01:00 +12°C° 0 mm 3 m/s 756 mmHg 85%
    02:00 +11°C° 0 mm 3 m/s 756 mmHg 86%
    03:00 +11°C° 0 mm 3 m/s 755 mmHg 87%
    04:00 +12°C° 0 mm 3 m/s 755 mmHg 85%
    05:00 +12°C° 0 mm 3 m/s 755 mmHg 83%
    06:00 +13°C° 0 mm 3 m/s 755 mmHg 81%
    07:00 +15°C° 0 mm 4 m/s 754 mmHg 75%
    08:00 +17°C° 0 mm 5 m/s 754 mmHg 69%
    09:00 +20°C° 0 mm 5 m/s 754 mmHg 64%
    10:00 +21°C° 0 mm 6 m/s 753 mmHg 61%
    11:00 +22°C° 0 mm 6 m/s 753 mmHg 59%
    12:00 +23°C° 0 mm 6 m/s 752 mmHg 56%
    13:00 +23°C° 0 mm 7 m/s 752 mmHg 57%
    14:00 +23°C° 0 mm 7 m/s 751 mmHg 57%
    15:00 +24°C° 0 mm 7 m/s 751 mmHg 58%
    16:00 +23°C° 0 mm 6 m/s 750 mmHg 62%
    17:00 +23°C° 0 mm 6 m/s 750 mmHg 66%
    18:00 +22°C° 0 mm 5 m/s 750 mmHg 71%
    19:00 +21°C° 0 mm 5 m/s 750 mmHg 76%
    20:00 +19°C° 0 mm 4 m/s 749 mmHg 81%
    21:00 +18°C° 0 mm 4 m/s 749 mmHg 86%
    22:00 +17°C° 0 mm 4 m/s 749 mmHg 87%
    23:00 +17°C° 0 mm 4 m/s 749 mmHg 88%
    Arată mai mult